• In Portugal
  • List of Countries
  • For 7 days
  • Water Temperature
  • Satellite Maps
  • Weather Map
  • Weather Widgets
  • user-avatar
    Login

    Hourly Weather Shannon

    Today, 24 January, Wednesday

    Time Temperature Precipitation Wind Pressure Humidity
    00:00 +9°C° 2.3 mm 11 mps 745 mmHg 88%
    01:00 +8°C° 2.3 mm 11 mps 744 mmHg 86%
    02:00 +7°C° 2.3 mm 10 mps 744 mmHg 85%
    03:00 +6°C° 0.2 mm 10 mps 744 mmHg 82%
    04:00 +5°C° 0.2 mm 9 mps 744 mmHg 79%
    05:00 +3°C° 0.2 mm 9 mps 744 mmHg 76%
    06:00 +4°C° 0.1 mm 8 mps 744 mmHg 77%
    07:00 +4°C° 0.1 mm 8 mps 745 mmHg 77%
    08:00 +4°C° 0.1 mm 8 mps 745 mmHg 78%
    09:00 +4°C° 0.2 mm 8 mps 745 mmHg 76%
    10:00 +5°C° 0.2 mm 8 mps 746 mmHg 75%
    11:00 +6°C° 0.2 mm 8 mps 746 mmHg 73%
    12:00 +6°C° 0.2 mm 8 mps 746 mmHg 72%
    13:00 +5°C° 0.2 mm 9 mps 746 mmHg 72%
    14:00 +5°C° 0.2 mm 9 mps 746 mmHg 72%
    15:00 +5°C° 0.3 mm 8 mps 746 mmHg 74%
    16:00 +4°C° 0.3 mm 8 mps 747 mmHg 76%
    17:00 +4°C° 0.3 mm 8 mps 747 mmHg 78%
    18:00 +3°C° 0.1 mm 7 mps 747 mmHg 77%
    19:00 +3°C° 0.1 mm 7 mps 748 mmHg 77%
    20:00 +3°C° 0.1 mm 7 mps 748 mmHg 77%
    21:00 +2°C° 0.2 mm 7 mps 748 mmHg 77%
    22:00 +2°C° 0.2 mm 7 mps 748 mmHg 77%
    23:00 +2°C° 0.2 mm 7 mps 748 mmHg 77%

    Tomorrow, 25 January, Thursday

    Time Temperature Precipitation Wind Pressure Humidity
    00:00 +2°C° 0.3 mm 7 mps 748 mmHg 77%
    01:00 +2°C° 0.3 mm 7 mps 748 mmHg 78%
    02:00 +2°C° 0.3 mm 7 mps 747 mmHg 78%
    03:00 +2°C° 0.1 mm 7 mps 747 mmHg 78%
    04:00 +2°C° 0.1 mm 7 mps 747 mmHg 78%
    05:00 +2°C° 0.1 mm 7 mps 746 mmHg 79%
    06:00 +3°C° 0.6 mm 7 mps 747 mmHg 80%
    07:00 +3°C° 0.6 mm 7 mps 747 mmHg 81%
    08:00 +4°C° 0.6 mm 7 mps 747 mmHg 83%
    09:00 +4°C° 0.4 mm 7 mps 748 mmHg 81%
    10:00 +5°C° 0.4 mm 7 mps 749 mmHg 79%
    11:00 +6°C° 0.4 mm 7 mps 750 mmHg 78%
    12:00 +6°C° 0.2 mm 7 mps 750 mmHg 78%
    13:00 +7°C° 0.2 mm 6 mps 751 mmHg 77%
    14:00 +7°C° 0.2 mm 6 mps 752 mmHg 77%
    15:00 +5°C° 0.1 mm 6 mps 753 mmHg 80%
    16:00 +4°C° 0.1 mm 6 mps 754 mmHg 82%
    17:00 +4°C° 0.1 mm 6 mps 755 mmHg 84%
    18:00 +3°C° 0 mm 6 mps 757 mmHg 84%
    19:00 +3°C° 0 mm 6 mps 758 mmHg 84%
    20:00 +3°C° 0 mm 6 mps 759 mmHg 83%
    21:00 +3°C° 0 mm 6 mps 760 mmHg 83%
    22:00 +3°C° 0 mm 6 mps 761 mmHg 82%
    23:00 +2°C° 0 mm 6 mps 762 mmHg 81%

    Day after tomorrow, 26 January, Friday

    Time Temperature Precipitation Wind Pressure Humidity
    00:00 +2°C° 0 mm 5 mps 763 mmHg 81%
    01:00 +2°C° 0 mm 5 mps 764 mmHg 81%
    02:00 +2°C° 0 mm 5 mps 765 mmHg 81%
    03:00 +1°C° 0 mm 5 mps 765 mmHg 82%
    04:00 +1°C° 0 mm 4 mps 766 mmHg 83%
    05:00 +1°C° 0 mm 4 mps 766 mmHg 84%
    06:00 +2°C° 0 mm 3 mps 767 mmHg 84%
    07:00 +2°C° 0 mm 3 mps 767 mmHg 84%
    08:00 +3°C° 0 mm 2 mps 768 mmHg 84%
    09:00 +3°C° 0 mm 3 mps 768 mmHg 82%
    10:00 +4°C° 0 mm 3 mps 768 mmHg 79%
    11:00 +5°C° 0 mm 3 mps 768 mmHg 77%
    12:00 +5°C° 0.4 mm 3 mps 767 mmHg 79%
    13:00 +5°C° 0.4 mm 4 mps 766 mmHg 82%
    14:00 +5°C° 0.4 mm 4 mps 766 mmHg 85%
    15:00 +5°C° 1.2 mm 4 mps 765 mmHg 88%
    16:00 +5°C° 1.2 mm 5 mps 765 mmHg 91%
    17:00 +5°C° 1.2 mm 5 mps 764 mmHg 94%
    18:00 +6°C° 0.1 mm 4 mps 764 mmHg 95%
    19:00 +6°C° 0.1 mm 4 mps 765 mmHg 95%
    20:00 +7°C° 0.1 mm 4 mps 765 mmHg 96%
    21:00 +7°C° 0 mm 4 mps 765 mmHg 96%
    22:00 +7°C° 0 mm 3 mps 765 mmHg 95%
    23:00 +7°C° 0 mm 3 mps 766 mmHg 95%

    27 January, Saturday

    Time Temperature Precipitation Wind Pressure Humidity
    00:00 +7°C° 0.5 mm 3 mps 766 mmHg 96%
    01:00 +6°C° 0.5 mm 4 mps 766 mmHg 96%
    02:00 +6°C° 0.5 mm 4 mps 766 mmHg 96%
    03:00 +7°C° 0.4 mm 4 mps 765 mmHg 96%
    04:00 +8°C° 0.4 mm 5 mps 765 mmHg 96%
    05:00 +9°C° 0.4 mm 6 mps 765 mmHg 96%
    06:00 +9°C° 0.1 mm 6 mps 765 mmHg 95%
    07:00 +9°C° 0.1 mm 6 mps 766 mmHg 95%
    08:00 +10°C° 0.1 mm 6 mps 766 mmHg 95%
    09:00 +10°C° 0.1 mm 6 mps 767 mmHg 94%
    10:00 +10°C° 0.1 mm 6 mps 767 mmHg 94%
    11:00 +10°C° 0.1 mm 6 mps 767 mmHg 94%
    12:00 +10°C° 0.1 mm 6 mps 768 mmHg 94%
    13:00 +11°C° 0.1 mm 6 mps 768 mmHg 94%
    14:00 +11°C° 0.1 mm 6 mps 768 mmHg 94%
    15:00 +11°C° 0.1 mm 6 mps 768 mmHg 94%
    16:00 +12°C° 0.1 mm 5 mps 768 mmHg 95%
    17:00 +10°C° 0.1 mm 5 mps 769 mmHg 95%
    18:00 +10°C° 0 mm 5 mps 769 mmHg 95%
    19:00 +10°C° 0 mm 5 mps 770 mmHg 95%
    20:00 +10°C° 0 mm 6 mps 770 mmHg 95%
    21:00 +10°C° 0 mm 6 mps 770 mmHg 95%
    22:00 +10°C° 0 mm 6 mps 771 mmHg 95%
    23:00 +10°C° 0 mm 6 mps 771 mmHg 95%

    28 January, Sunday

    Time Temperature Precipitation Wind Pressure Humidity
    00:00 +10°C° 0 mm 5 mps 771 mmHg 95%
    01:00 +10°C° 0 mm 5 mps 771 mmHg 95%
    02:00 +10°C° 0 mm 5 mps 771 mmHg 95%
    03:00 +10°C° 0 mm 5 mps 771 mmHg 95%
    04:00 +10°C° 0 mm 5 mps 771 mmHg 95%
    05:00 +9°C° 0 mm 6 mps 771 mmHg 95%
    06:00 +10°C° 0.1 mm 5 mps 772 mmHg 94%
    07:00 +10°C° 0.1 mm 5 mps 772 mmHg 94%
    08:00 +10°C° 0.1 mm 5 mps 772 mmHg 93%
    09:00 +10°C° 0 mm 5 mps 773 mmHg 92%
    10:00 +10°C° 0 mm 6 mps 773 mmHg 91%
    11:00 +11°C° 0 mm 6 mps 773 mmHg 90%
    12:00 +11°C° 0 mm 6 mps 773 mmHg 90%
    13:00 +12°C° 0 mm 5 mps 773 mmHg 90%
    14:00 +12°C° 0 mm 5 mps 773 mmHg 89%
    15:00 +10°C° 0 mm 5 mps 773 mmHg 91%
    16:00 +10°C° 0 mm 5 mps 773 mmHg 92%
    17:00 +11°C° 0 mm 4 mps 773 mmHg 93%
    18:00 +10°C° 0 mm 4 mps 773 mmHg 93%
    19:00 +9°C° 0 mm 5 mps 773 mmHg 93%
    20:00 +9°C° 0 mm 5 mps 773 mmHg 93%
    21:00 +9°C° 0 mm 5 mps 773 mmHg 92%
    22:00 +9°C° 0 mm 5 mps 773 mmHg 91%
    23:00 +9°C° 0 mm 5 mps 773 mmHg 91%

    29 January, Monday

    Time Temperature Precipitation Wind Pressure Humidity
    00:00 +9°C° 0 mm 5 mps 772 mmHg 90%
    01:00 +9°C° 0 mm 5 mps 772 mmHg 89%
    02:00 +9°C° 0 mm 5 mps 772 mmHg 88%
    03:00 +9°C° 0 mm 5 mps 771 mmHg 89%
    04:00 +9°C° 0 mm 5 mps 771 mmHg 89%
    05:00 +8°C° 0 mm 6 mps 771 mmHg 89%
    06:00 +9°C° 0 mm 6 mps 771 mmHg 88%
    07:00 +9°C° 0 mm 6 mps 771 mmHg 88%
    08:00 +9°C° 0 mm 6 mps 771 mmHg 88%
    09:00 +10°C° 0 mm 6 mps 771 mmHg 84%
    10:00 +10°C° 0 mm 6 mps 770 mmHg 81%
    11:00 +11°C° 0 mm 7 mps 770 mmHg 78%
    12:00 +11°C° 0 mm 6 mps 770 mmHg 79%
    13:00 +11°C° 0 mm 6 mps 769 mmHg 79%
    14:00 +11°C° 0 mm 6 mps 769 mmHg 79%
    15:00 +10°C° 0 mm 6 mps 768 mmHg 80%
    16:00 +10°C° 0 mm 6 mps 768 mmHg 82%
    17:00 +9°C° 0 mm 6 mps 767 mmHg 83%
    18:00 +9°C° 0 mm 6 mps 767 mmHg 83%
    19:00 +9°C° 0 mm 6 mps 766 mmHg 84%
    20:00 +9°C° 0 mm 7 mps 766 mmHg 84%
    21:00 +9°C° 0.1 mm 7 mps 765 mmHg 84%
    22:00 +9°C° 0.1 mm 8 mps 764 mmHg 83%
    23:00 +9°C° 0.1 mm 8 mps 764 mmHg 83%
    Show more